Temp
65 66 65 66 66 66 67 67 66 66 66 66 66 66 66 66 65 66 66 66 66 66 66 66 66 66 66 67 66 65 64 64 63 63 62 62 62 62 62 62 62 62 61 61 62 61 61 61 60 60 60 60 60 60 59 59 59 59 59 59 59 59 59 59 59 59 59 59 59
66 66 65 65 65 66 66 67 67 67 67 67 67 66 66 66 65 65 65 66 66 66 66 66 66 66 66 67 66 65 65 64 64 63 63 63 63 63 62 62 62 61 61 61 61 61 61 60 60 60 60 60 59 59 59 59 59 59 58 58 58 59 59 58 58 58 58 58 59
67 67 66 65 65 65 65 66 66 67 67 68 68 68 67 66 66 66 66 66 66 66 65 65 66 66 66 66 66 66 65 65 64 64 63 63 63 63 62 62 62 61 61 61 61 61 61 60 60 60 59 59 59 59 59 60 60 59 58 58 58 58 58 58 58 58 58 58 58
69 68 68 67 66 66 65 65 66 67 67 68 68 68 67 67 67 66 66 66 66 65 65 65 66 67 67 67 67 66 66 65 65 64 63 63 63 63 62 62 62 61 61 61 61 61 61 61 60 60 59 59 59 59 59 59 59 59 58 58 58 58 58 57 57 58 57 57 58
69 69 69 70 70 70 70 70 70 70 70 70 69 69 69 68 68 67 67 66 66 66 66 66 67 67 68 68 67 67 66 65 64 63 63 62 62 62 62 62 62 61 61 62 62 62 61 61 60 60 60 60 59 59 59 59 59 59 59 59 58 58 58 57 58 58 58 58 59
68 69 69 69 69 69 70 70 70 71 71 71 71 71 70 70 70 69 68 68 67 67 67 67 67 66 67 67 66 66 66 65 64 63 63 62 62 62 62 61 61 61 61 61 61 62 62 61 60 60 60 60 60 60 60 60 59 59 59 59 59 58 58 57 57 57 57 58 58
68 68 68 69 69 69 69 69 69 70 70 70 69 69 69 70 69 69 69 69 69 68 68 66 66 66 66 66 65 65 65 64 64 64 63 62 62 62 62 61 61 61 61 61 61 61 61 61 60 59 59 59 59 60 61 61 60 59 58 58 59 58 58 57 57 57 56 56 57
66 67 67 68 68 68 69 69 69 69 69 68 68 68 68 69 68 68 68 68 68 68 68 68 68 67 66 66 66 65 65 64 64 64 63 63 62 62 62 62 61 61 61 61 61 60 60 60 59 58 58 58 58 59 60 61 60 59 59 58 58 58 57 57 57 57 56 56 56
65 66 66 66 66 67 68 68 69 69 68 68 68 68 68 68 68 68 68 67 67 68 69 69 69 68 68 67 66 66 65 65 64 63 63 63 63 63 62 62 61 61 61 60 60 60 59 59 58 58 57 57 57 58 59 60 60 59 59 58 58 57 57 57 57 57 56 56 55
64 64 65 65 65 66 66 67 67 68 68 68 68 68 68 67 67 68 67 67 67 68 68 69 69 69 68 68 67 66 66 65 64 63 63 63 62 63 62 62 62 61 61 60 60 59 59 58 57 57 57 57 57 57 58 58 58 58 58 57 57 57 57 57 56 56 56 56 55
63 63 63 63 64 65 65 65 66 66 67 67 68 68 68 67 68 68 68 67 67 67 68 68 68 68 68 67 67 67 66 66 65 64 64 63 62 62 62 62 61 61 61 61 60 59 58 57 57 57 57 56 56 56 57 57 56 56 56 56 56 56 55 55 55 55 56 56 55
63 63 63 63 63 63 64 64 65 65 66 67 67 68 68 68 68 68 68 68 67 67 67 67 67 67 67 67 67 67 67 66 66 65 65 64 63 63 62 62 61 61 60 60 59 59 58 58 58 57 57 56 56 56 56 56 55 54 54 54 54 54 54 55 55 55 55 55 55
63 63 63 63 63 63 63 63 64 65 65 66 66 67 68 68 68 68 68 68 67 67 67 66 66 66 67 67 67 67 66 66 66 66 65 65 65 64 63 62 62 61 60 60 59 58 57 57 57 58 58 57 56 56 56 56 55 54 54 53 53 53 53 54 54 54 54 54 53
64 64 63 63 63 63 63 63 64 64 65 65 65 66 67 67 67 67 67 67 67 67 66 66 66 66 67 67 66 66 66 65 65 65 65 64 64 64 64 63 63 62 61 61 60 59 58 57 58 58 58 58 57 57 57 56 56 55 54 54 54 54 54 54 54 53 52 52 51
64 64 64 63 63 63 63 63 64 64 64 64 65 65 65 65 66 66 66 66 66 66 66 66 67 67 67 67 67 66 66 65 65 64 64 63 64 63 63 63 63 63 62 61 61 60 59 58 58 58 58 58 58 58 57 57 57 56 56 56 55 55 55 54 54 53 52 51 50
64 64 64 63 63 63 63 63 64 64 64 64 64 64 64 64 65 65 65 65 65 65 65 66 66 67 67 67 67 67 66 65 65 64 63 63 63 63 62 62 62 62 62 61 60 59 59 59 58 58 58 58 58 58 58 57 57 57 57 56 56 55 55 54 54 53 52 51 50
64 63 63 63 63 63 63 63 63 63 63 63 63 63 63 63 64 63 63 63 64 64 64 65 65 65 66 66 66 66 66 65 65 64 63 63 62 62 62 61 61 61 61 61 60 59 59 58 58 58 58 58 57 57 57 56 56 56 55 55 55 55 54 54 53 52 52 51 51
63 63 63 63 62 62 62 62 62 62 62 62 62 62 63 63 62 62 62 62 62 63 63 63 64 64 64 64 65 65 65 64 64 64 64 64 63 63 62 62 61 61 61 60 59 59 59 58 58 58 57 57 57 56 56 55 55 54 54 54 54 54 53 53 53 52 51 51 50
62 62 62 62 61 61 61 61 61 61 61 61 61 61 61 61 61 61 61 62 62 62 62 62 62 63 63 63 63 63 63 63 63 63 64 64 64 63 63 63 62 62 61 61 60 59 59 58 58 57 57 56 56 55 55 55 54 54 54 54 53 53 53 53 53 52 51 50 50
61 61 61 61 61 60 60 60 60 60 60 60 60 60 60 60 61 61 61 61 62 62 61 61 61 61 62 62 62 62 62 62 62 62 63 63 63 63 63 63 63 63 62 61 60 60 59 58 58 57 56 55 55 54 54 54 53 53 53 53 53 53 52 52 52 52 51 51 51
60 60 60 60 60 60 60 60 60 60 60 60 60 60 60 60 60 60 61 61 61 62 61 61 61 61 61 61 61 61 61 62 62 62 62 62 62 62 63 63 63 63 62 62 61 60 60 59 58 57 56 55 55 54 54 53 53 52 52 53 52 52 53 53 52 52 52 51 51
58 59 59 59 59 59 59 59 60 59 59 59 59 60 60 60 60 60 60 61 61 61 61 61 61 60 60 60 60 60 61 61 61 61 61 61 61 62 62 62 62 62 61 61 60 60 60 59 59 58 57 56 55 54 54 54 53 52 52 52 52 52 52 52 52 52 51 51 51
57 58 58 59 59 59 59 59 59 59 59 59 59 59 59 59 60 60 60 60 60 60 60 60 60 60 60 59 59 60 60 60 60 60 61 61 60 60 60 61 60 60 59 59 59 59 59 59 59 58 57 56 55 54 54 54 53 52 52 52 52 52 51 51 51 51 50 50 51
56 57 57 58 58 58 58 58 58 58 58 58 58 58 59 59 59 59 59 59 59 59 59 59 59 59 59 59 59 59 59 59 59 59 59 59 59 59 59 59 59 58 59 59 59 58 57 57 57 57 57 56 55 54 54 54 53 53 52 52 52 51 51 50 50 50 50 50 51
55 56 56 57 57 57 57 57 57 57 57 57 57 57 58 58 58 58 58 58 58 58 58 58 58 58 58 58 58 59 59 59 59 59 59 58 58 58 58 58 58 58 58 58 56 55 55 56 56 56 56 56 55 55 54 54 54 53 53 52 52 51 51 50 50 51 51 50 51
54 55 55 56 56 56 56 56 55 55 55 56 56 56 56 56 57 57 57 56 57 57 57 57 56 56 57 57 57 57 57 58 58 58 58 58 58 58 58 58 58 58 58 56 55 54 54 54 55 55 56 56 55 54 54 53 53 53 53 52 52 52 51 51 51 51 51 51 51
53 54 54 54 55 55 54 54 54 54 54 54 54 54 54 55 55 55 55 55 55 56 56 56 56 55 55 56 55 55 56 57 57 57 58 58 58 58 57 57 57 58 57 55 54 54 54 54 54 54 54 55 55 54 53 52 52 52 52 52 52 52 51 51 51 51 52 52 52
52 53 53 53 53 53 53 53 53 53 53 53 53 53 54 54 54 54 54 54 54 55 55 55 55 55 54 54 54 54 55 55 56 57 57 57 58 58 58 57 57 57 56 54 54 53 53 54 53 53 53 54 54 53 53 52 52 52 52 51 51 51 51 51 51 51 51 52 52
52 52 52 52 51 52 52 52 52 52 52 52 52 53 53 53 53 53 53 53 53 53 53 53 54 54 53 53 53 54 54 55 55 56 56 56 57 57 57 57 57 56 55 54 53 53 53 53 53 53 53 53 52 52 52 52 52 52 51 51 51 50 50 50 50 50 50 50 51
51 51 51 51 51 51 51 51 51 51 52 52 52 52 52 52 52 52 52 51 52 52 53 53 53 53 53 53 53 54 54 54 55 56 56 56 56 57 57 57 57 56 55 54 53 53 52 52 52 52 52 52 52 52 52 52 51 51 50 50 50 49 49 49 49 49 49 49 49
50 50 50 50 50 50 50 50 51 51 51 51 51 51 51 50 51 51 51 51 52 52 53 54 53 53 53 53 53 53 53 53 54 55 55 55 55 56 56 56 56 56 55 54 53 53 52 52 51 51 51 51 52 52 51 51 50 50 49 49 49 49 49 49 48 48 48 48 48
49 49 49 49 49 49 50 50 50 50 50 50 50 50 50 50 50 51 51 52 52 52 53 53 53 53 53 53 53 53 53 53 53 53 54 54 54 54 55 55 56 56 55 54 53 53 52 52 51 51 50 50 51 51 51 50 50 50 49 49 49 49 48 48 48 48 48 48 47
48 48 48 48 48 48 49 49 49 49 49 49 49 49 49 49 50 50 51 51 52 52 52 52 52 52 52 52 52 52 52 52 52 53 53 53 53 53 54 54 55 55 54 54 53 52 52 51 51 50 50 50 50 50 50 50 49 49 49 49 49 48 48 48 48 48 48 48 47
46 46 46 46 47 47 47 47 48 48 48 48 48 48 49 49 50 50 50 51 51 52 52 52 52 52 52 52 52 52 51 52 52 52 52 53 53 53 53 53 54 54 53 53 53 52 52 51 50 50 50 50 49 49 49 49 48 48 48 48 48 48 48 48 48 48 48 48 48
45 45 45 45 45 46 46 46 46 46 47 47 47 48 49 49 49 50 50 51 51 51 51 52 52 52 52 53 52 51 51 50 50 51 51 52 52 52 52 52 53 53 53 53 52 52 51 51 50 50 50 49 48 48 48 48 48 48 48 48 48 48 48 48 48 48 48 48 48
45 45 44 44 44 45 45 45 45 45 46 46 46 47 48 48 49 49 50 50 50 50 50 51 51 51 51 51 51 51 51 51 50 50 50 50 50 50 51 51 52 52 52 52 52 51 51 50 50 50 49 49 48 48 48 47 47 47 47 47 47 47 48 48 48 48 48 48 48
45 44 44 44 44 44 44 44 44 44 45 45 46 46 47 47 48 49 49 50 49 49 49 50 50 50 50 50 50 50 50 50 50 50 50 49 49 49 50 50 51 51 52 52 51 51 50 50 50 49 49 48 47 47 47 47 47 47 47 47 47 47 48 48 48 48 48 48 47
44 44 44 43 43 43 43 44 44 43 44 45 45 46 46 47 48 48 49 49 49 48 48 48 48 48 48 48 48 48 48 49 49 49 49 47 48 48 49 49 49 50 51 51 51 50 50 50 49 49 48 48 47 47 47 47 46 46 46 46 46 47 47 47 47 47 47 47 46
43 43 43 43 43 43 43 43 43 43 44 44 45 46 46 47 47 48 48 49 48 48 48 47 47 47 47 48 47 47 47 47 47 47 47 46 47 47 48 47 48 49 50 50 50 50 50 49 49 49 48 48 47 47 47 46 46 45 45 45 46 46 46 47 47 47 46 47 45
43 43 43 43 43 43 43 43 43 44 44 45 45 46 46 46 47 48 48 49 48 48 47 47 47 47 47 47 47 46 45 45 46 46 46 45 46 46 47 47 47 48 49 50 49 49 49 49 49 49 48 48 47 47 46 46 45 45 45 45 45 45 45 45 46 45 45 45 45
43 43 43 43 44 44 44 44 44 45 45 45 45 46 46 47 47 48 48 48 48 48 48 47 47 47 47 47 46 45 44 44 45 45 45 46 46 46 46 47 47 47 48 49 49 49 49 49 49 49 48 48 47 46 46 45 44 44 44 44 44 44 44 44 44 44 44 44 44
MSLP
1013.58 1013.61 1013.66 1013.70 1013.70 1013.70 1013.73 1013.73 1013.82 1013.85 1013.85 1013.85 1013.82 1013.78 1013.73 1013.70 1013.73 1013.73 1013.78 1013.85 1013.90 1013.97 1014.02 1014.02 1014.02 1014.02 1014.05 1014.09 1014.17 1014.29 1014.38 1014.41 1014.46 1014.53 1014.58 1014.58 1014.61 1014.66 1014.70 1014.73 1014.73 1014.70 1014.66 1014.66 1014.58 1014.49 1014.46 1014.46 1014.34 1014.29 1014.22 1014.14 1014.02 1013.90 1013.85 1013.85 1014.02 1014.14 1014.34 1014.49 1014.61 1014.73 1014.85 1015.14 1015.58 1015.82 1015.93 1015.93 1016.02
1013.46 1013.49 1013.53 1013.58 1013.61 1013.66 1013.70 1013.73 1013.73 1013.73 1013.78 1013.78 1013.78 1013.78 1013.78 1013.78 1013.82 1013.82 1013.85 1013.90 1013.93 1013.97 1014.02 1013.97 1014.02 1014.02 1014.02 1014.02 1014.05 1014.14 1014.22 1014.29 1014.29 1014.38 1014.41 1014.46 1014.46 1014.49 1014.58 1014.61 1014.61 1014.61 1014.58 1014.58 1014.53 1014.46 1014.38 1014.29 1014.26 1014.14 1014.05 1014.05 1014.02 1013.90 1013.85 1013.90 1013.97 1014.09 1014.17 1014.29 1014.34 1014.46 1014.66 1014.97 1015.29 1015.58 1015.73 1015.85 1015.97
1013.34 1013.38 1013.41 1013.46 1013.58 1013.58 1013.66 1013.70 1013.70 1013.70 1013.66 1013.66 1013.66 1013.70 1013.73 1013.73 1013.78 1013.82 1013.85 1013.85 1013.93 1013.97 1014.02 1014.02 1014.02 1013.97 1013.97 1013.97 1013.97 1014.02 1014.05 1014.14 1014.17 1014.22 1014.26 1014.29 1014.29 1014.29 1014.38 1014.46 1014.46 1014.49 1014.49 1014.49 1014.49 1014.41 1014.34 1014.29 1014.17 1014.05 1014.02 1013.97 1013.97 1013.93 1013.90 1013.97 1014.02 1014.14 1014.22 1014.26 1014.29 1014.41 1014.58 1014.78 1015.02 1015.29 1015.53 1015.73 1015.82
1013.22 1013.26 1013.29 1013.34 1013.41 1013.49 1013.53 1013.61 1013.61 1013.58 1013.58 1013.58 1013.58 1013.58 1013.61 1013.61 1013.70 1013.73 1013.73 1013.78 1013.85 1013.90 1013.93 1013.93 1013.90 1013.85 1013.85 1013.85 1013.85 1013.85 1013.90 1013.97 1014.02 1014.05 1014.14 1014.14 1014.14 1014.14 1014.22 1014.26 1014.29 1014.34 1014.38 1014.38 1014.41 1014.34 1014.29 1014.29 1014.17 1014.05 1013.97 1013.93 1013.93 1013.93 1013.93 1013.97 1014.09 1014.17 1014.26 1014.29 1014.41 1014.53 1014.66 1014.73 1014.90 1015.09 1015.29 1015.41 1015.53
1013.26 1013.26 1013.26 1013.26 1013.26 1013.26 1013.29 1013.29 1013.29 1013.34 1013.34 1013.34 1013.38 1013.41 1013.41 1013.41 1013.53 1013.58 1013.61 1013.66 1013.73 1013.78 1013.82 1013.82 1013.82 1013.73 1013.73 1013.73 1013.73 1013.73 1013.78 1013.85 1013.93 1013.97 1014.02 1014.02 1014.02 1014.05 1014.09 1014.09 1014.14 1014.14 1014.22 1014.22 1014.26 1014.26 1014.26 1014.26 1014.17 1014.09 1014.02 1013.90 1013.90 1013.90 1013.93 1013.97 1014.02 1014.14 1014.22 1014.34 1014.49 1014.66 1014.78 1014.85 1014.93 1015.02 1015.09 1015.17 1015.26
1013.34 1013.34 1013.34 1013.34 1013.34 1013.34 1013.34 1013.34 1013.29 1013.29 1013.29 1013.29 1013.29 1013.29 1013.29 1013.29 1013.34 1013.41 1013.46 1013.49 1013.49 1013.53 1013.58 1013.66 1013.70 1013.70 1013.70 1013.66 1013.66 1013.66 1013.70 1013.73 1013.82 1013.85 1013.90 1013.90 1013.90 1013.93 1013.93 1013.93 1013.97 1014.02 1014.02 1014.05 1014.09 1014.09 1014.09 1014.09 1014.09 1014.05 1014.02 1013.90 1013.85 1013.85 1013.93 1013.97 1014.02 1014.05 1014.14 1014.29 1014.46 1014.66 1014.78 1014.85 1014.90 1014.93 1014.97 1015.02 1015.02
1013.41 1013.41 1013.41 1013.41 1013.38 1013.41 1013.41 1013.41 1013.41 1013.41 1013.41 1013.41 1013.41 1013.41 1013.41 1013.38 1013.34 1013.38 1013.38 1013.38 1013.38 1013.38 1013.41 1013.49 1013.53 1013.58 1013.66 1013.66 1013.61 1013.61 1013.61 1013.66 1013.70 1013.73 1013.78 1013.78 1013.78 1013.78 1013.78 1013.82 1013.85 1013.85 1013.90 1013.93 1013.97 1013.97 1013.97 1013.97 1014.02 1014.02 1014.02 1013.97 1013.93 1013.90 1013.85 1013.90 1013.93 1014.02 1014.14 1014.29 1014.41 1014.58 1014.70 1014.73 1014.82 1014.82 1014.82 1014.82 1014.82
1013.53 1013.58 1013.53 1013.53 1013.53 1013.49 1013.46 1013.41 1013.41 1013.46 1013.46 1013.46 1013.49 1013.49 1013.46 1013.41 1013.41 1013.41 1013.38 1013.34 1013.29 1013.29 1013.29 1013.29 1013.34 1013.41 1013.46 1013.49 1013.53 1013.53 1013.53 1013.58 1013.58 1013.58 1013.61 1013.66 1013.66 1013.61 1013.58 1013.66 1013.70 1013.73 1013.73 1013.82 1013.85 1013.85 1013.85 1013.90 1013.90 1013.90 1013.93 1013.93 1013.97 1013.97 1013.93 1013.85 1013.85 1013.97 1014.09 1014.22 1014.34 1014.49 1014.61 1014.66 1014.66 1014.61 1014.61 1014.66 1014.70
1013.70 1013.70 1013.70 1013.70 1013.70 1013.66 1013.58 1013.58 1013.53 1013.49 1013.49 1013.49 1013.49 1013.46 1013.41 1013.41 1013.41 1013.38 1013.34 1013.29 1013.29 1013.26 1013.22 1013.17 1013.14 1013.17 1013.22 1013.29 1013.34 1013.38 1013.41 1013.46 1013.49 1013.49 1013.53 1013.53 1013.53 1013.53 1013.53 1013.53 1013.53 1013.58 1013.61 1013.66 1013.70 1013.73 1013.78 1013.85 1013.85 1013.85 1013.85 1013.85 1013.85 1013.90 1013.93 1013.90 1013.90 1013.93 1014.02 1014.14 1014.29 1014.41 1014.49 1014.58 1014.53 1014.49 1014.49 1014.53 1014.61
1013.85 1013.85 1013.85 1013.82 1013.78 1013.73 1013.73 1013.73 1013.66 1013.58 1013.58 1013.53 1013.49 1013.41 1013.41 1013.41 1013.41 1013.38 1013.34 1013.29 1013.29 1013.26 1013.17 1013.14 1013.05 1013.05 1013.09 1013.09 1013.14 1013.17 1013.26 1013.29 1013.38 1013.41 1013.41 1013.41 1013.41 1013.41 1013.38 1013.38 1013.38 1013.41 1013.46 1013.49 1013.58 1013.66 1013.70 1013.73 1013.73 1013.73 1013.78 1013.82 1013.82 1013.82 1013.85 1013.90 1013.93 1013.97 1014.02 1014.14 1014.26 1014.29 1014.38 1014.46 1014.46 1014.46 1014.46 1014.49 1014.58
1014.02 1014.02 1014.02 1013.97 1013.97 1013.90 1013.85 1013.82 1013.73 1013.70 1013.61 1013.58 1013.49 1013.41 1013.38 1013.38 1013.34 1013.29 1013.29 1013.29 1013.26 1013.22 1013.14 1013.09 1013.05 1013.02 1012.97 1012.97 1013.02 1013.02 1013.02 1013.05 1013.14 1013.17 1013.26 1013.29 1013.29 1013.29 1013.29 1013.26 1013.26 1013.29 1013.29 1013.34 1013.41 1013.53 1013.58 1013.58 1013.61 1013.61 1013.61 1013.70 1013.73 1013.73 1013.82 1013.85 1013.90 1013.93 1014.02 1014.09 1014.14 1014.22 1014.29 1014.34 1014.38 1014.46 1014.46 1014.46 1014.58
1014.14 1014.14 1014.14 1014.14 1014.09 1014.02 1013.97 1013.85 1013.82 1013.73 1013.66 1013.58 1013.53 1013.41 1013.38 1013.29 1013.29 1013.26 1013.26 1013.26 1013.22 1013.17 1013.14 1013.09 1013.05 1013.02 1012.93 1012.85 1012.85 1012.85 1012.85 1012.85 1012.85 1012.90 1012.97 1013.05 1013.09 1013.14 1013.14 1013.09 1013.14 1013.14 1013.14 1013.22 1013.29 1013.38 1013.41 1013.41 1013.41 1013.41 1013.46 1013.49 1013.58 1013.61 1013.73 1013.78 1013.85 1013.85 1013.93 1013.97 1014.05 1014.14 1014.14 1014.22 1014.29 1014.34 1014.41 1014.46 1014.58
1014.17 1014.17 1014.17 1014.14 1014.14 1014.09 1014.02 1013.93 1013.85 1013.78 1013.70 1013.61 1013.58 1013.49 1013.41 1013.34 1013.29 1013.26 1013.26 1013.22 1013.17 1013.14 1013.14 1013.09 1013.05 1013.02 1012.93 1012.85 1012.78 1012.73 1012.73 1012.73 1012.73 1012.73 1012.73 1012.73 1012.82 1012.85 1012.90 1012.93 1012.93 1012.97 1012.97 1013.02 1013.14 1013.22 1013.29 1013.29 1013.29 1013.29 1013.29 1013.29 1013.38 1013.41 1013.49 1013.58 1013.66 1013.73 1013.82 1013.82 1013.85 1013.93 1013.97 1014.02 1014.14 1014.26 1014.34 1014.46 1014.53
1014.14 1014.14 1014.14 1014.14 1014.14 1014.09 1014.02 1013.97 1013.90 1013.82 1013.73 1013.70 1013.61 1013.58 1013.46 1013.41 1013.34 1013.29 1013.29 1013.26 1013.22 1013.14 1013.09 1013.05 1013.02 1012.93 1012.85 1012.78 1012.73 1012.70 1012.70 1012.66 1012.70 1012.70 1012.70 1012.66 1012.66 1012.70 1012.73 1012.73 1012.73 1012.78 1012.82 1012.85 1012.90 1012.97 1013.02 1013.02 1013.02 1013.05 1013.09 1013.09 1013.14 1013.22 1013.29 1013.38 1013.41 1013.49 1013.58 1013.61 1013.66 1013.70 1013.73 1013.82 1013.93 1014.09 1014.22 1014.34 1014.46
1014.17 1014.17 1014.14 1014.14 1014.09 1014.05 1014.02 1013.97 1013.90 1013.85 1013.82 1013.78 1013.73 1013.66 1013.58 1013.53 1013.41 1013.38 1013.34 1013.29 1013.26 1013.17 1013.14 1013.02 1012.90 1012.82 1012.73 1012.70 1012.70 1012.66 1012.61 1012.58 1012.58 1012.58 1012.58 1012.58 1012.58 1012.58 1012.58 1012.58 1012.58 1012.58 1012.58 1012.61 1012.66 1012.70 1012.73 1012.73 1012.78 1012.82 1012.85 1012.85 1012.90 1012.97 1013.05 1013.14 1013.17 1013.26 1013.29 1013.29 1013.34 1013.41 1013.46 1013.58 1013.73 1013.85 1014.02 1014.14 1014.26
1014.26 1014.26 1014.22 1014.17 1014.14 1014.09 1014.02 1014.02 1013.93 1013.85 1013.82 1013.82 1013.78 1013.73 1013.70 1013.61 1013.53 1013.46 1013.41 1013.34 1013.29 1013.22 1013.14 1013.02 1012.85 1012.78 1012.70 1012.61 1012.58 1012.58 1012.53 1012.49 1012.49 1012.49 1012.49 1012.49 1012.46 1012.46 1012.49 1012.46 1012.46 1012.46 1012.46 1012.49 1012.49 1012.53 1012.58 1012.58 1012.61 1012.66 1012.66 1012.70 1012.70 1012.73 1012.82 1012.90 1012.93 1013.02 1013.02 1013.05 1013.14 1013.17 1013.29 1013.41 1013.53 1013.70 1013.85 1014.02 1014.14
1014.38 1014.34 1014.29 1014.26 1014.22 1014.17 1014.14 1014.09 1014.02 1013.97 1013.90 1013.85 1013.85 1013.82 1013.73 1013.70 1013.58 1013.53 1013.49 1013.41 1013.34 1013.26 1013.14 1013.02 1012.90 1012.82 1012.73 1012.58 1012.53 1012.46 1012.46 1012.41 1012.41 1012.38 1012.38 1012.38 1012.38 1012.38 1012.38 1012.38 1012.38 1012.38 1012.38 1012.41 1012.41 1012.46 1012.46 1012.49 1012.53 1012.58 1012.58 1012.58 1012.58 1012.61 1012.66 1012.73 1012.78 1012.85 1012.85 1012.90 1012.97 1013.05 1013.14 1013.26 1013.41 1013.58 1013.73 1013.85 1013.97
1014.46 1014.46 1014.41 1014.38 1014.34 1014.29 1014.26 1014.22 1014.14 1014.09 1014.02 1013.97 1013.93 1013.85 1013.82 1013.73 1013.70 1013.58 1013.53 1013.49 1013.41 1013.29 1013.14 1013.02 1012.93 1012.85 1012.73 1012.61 1012.53 1012.46 1012.41 1012.38 1012.29 1012.29 1012.26 1012.22 1012.22 1012.22 1012.22 1012.22 1012.26 1012.26 1012.26 1012.29 1012.29 1012.29 1012.29 1012.38 1012.46 1012.46 1012.49 1012.53 1012.53 1012.58 1012.58 1012.66 1012.73 1012.78 1012.82 1012.85 1012.85 1012.93 1013.02 1013.14 1013.29 1013.41 1013.58 1013.73 1013.85
1014.58 1014.53 1014.49 1014.46 1014.46 1014.41 1014.34 1014.29 1014.26 1014.17 1014.14 1014.05 1014.02 1013.93 1013.85 1013.82 1013.73 1013.66 1013.58 1013.46 1013.38 1013.29 1013.17 1013.02 1012.93 1012.85 1012.73 1012.66 1012.58 1012.49 1012.46 1012.38 1012.29 1012.26 1012.17 1012.14 1012.05 1012.02 1012.02 1012.02 1012.02 1012.02 1012.05 1012.09 1012.14 1012.14 1012.17 1012.26 1012.29 1012.38 1012.46 1012.46 1012.49 1012.53 1012.58 1012.58 1012.66 1012.73 1012.73 1012.78 1012.82 1012.85 1012.93 1013.05 1013.17 1013.34 1013.46 1013.58 1013.73
1014.70 1014.61 1014.58 1014.53 1014.53 1014.46 1014.41 1014.34 1014.29 1014.26 1014.17 1014.14 1014.02 1013.97 1013.85 1013.82 1013.73 1013.66 1013.53 1013.41 1013.29 1013.26 1013.14 1013.02 1012.90 1012.82 1012.73 1012.66 1012.58 1012.49 1012.46 1012.38 1012.29 1012.26 1012.14 1012.09 1012.02 1011.93 1011.85 1011.82 1011.78 1011.78 1011.85 1011.85 1011.97 1012.02 1012.05 1012.14 1012.22 1012.29 1012.34 1012.41 1012.46 1012.49 1012.49 1012.58 1012.58 1012.66 1012.70 1012.73 1012.73 1012.78 1012.85 1012.97 1013.09 1013.26 1013.38 1013.49 1013.58
1014.85 1014.78 1014.73 1014.61 1014.58 1014.53 1014.46 1014.38 1014.29 1014.29 1014.22 1014.14 1014.02 1013.97 1013.85 1013.78 1013.73 1013.61 1013.49 1013.38 1013.29 1013.17 1013.05 1012.97 1012.85 1012.78 1012.70 1012.58 1012.53 1012.46 1012.41 1012.34 1012.29 1012.17 1012.14 1012.05 1012.02 1011.85 1011.78 1011.73 1011.61 1011.58 1011.66 1011.70 1011.73 1011.82 1011.85 1011.97 1012.05 1012.14 1012.26 1012.29 1012.34 1012.41 1012.46 1012.46 1012.53 1012.58 1012.58 1012.61 1012.66 1012.73 1012.78 1012.85 1012.97 1013.09 1013.22 1013.29 1013.41
1015.02 1014.93 1014.85 1014.78 1014.70 1014.58 1014.49 1014.46 1014.41 1014.34 1014.26 1014.14 1014.05 1013.97 1013.90 1013.78 1013.70 1013.58 1013.46 1013.38 1013.29 1013.14 1013.02 1012.93 1012.85 1012.73 1012.70 1012.61 1012.53 1012.46 1012.34 1012.26 1012.17 1012.14 1012.02 1011.97 1011.90 1011.82 1011.73 1011.66 1011.58 1011.58 1011.58 1011.58 1011.58 1011.61 1011.70 1011.78 1011.85 1011.97 1012.05 1012.14 1012.17 1012.26 1012.29 1012.34 1012.41 1012.46 1012.49 1012.53 1012.58 1012.61 1012.70 1012.73 1012.85 1012.93 1013.05 1013.14 1013.26
1015.22 1015.14 1015.02 1014.90 1014.78 1014.73 1014.61 1014.53 1014.46 1014.41 1014.29 1014.22 1014.09 1014.02 1013.93 1013.82 1013.70 1013.58 1013.46 1013.34 1013.26 1013.14 1013.02 1012.93 1012.85 1012.73 1012.70 1012.61 1012.58 1012.46 1012.29 1012.17 1012.14 1012.02 1011.93 1011.90 1011.82 1011.73 1011.73 1011.70 1011.61 1011.58 1011.53 1011.53 1011.58 1011.58 1011.61 1011.66 1011.73 1011.78 1011.85 1011.97 1012.05 1012.14 1012.14 1012.22 1012.29 1012.29 1012.38 1012.41 1012.46 1012.49 1012.58 1012.70 1012.73 1012.82 1012.90 1013.02 1013.09
1015.29 1015.22 1015.14 1015.02 1014.90 1014.82 1014.73 1014.66 1014.58 1014.46 1014.38 1014.26 1014.14 1014.02 1013.93 1013.82 1013.70 1013.58 1013.46 1013.29 1013.22 1013.14 1013.02 1012.97 1012.85 1012.78 1012.73 1012.66 1012.58 1012.46 1012.29 1012.14 1012.02 1011.90 1011.82 1011.78 1011.73 1011.73 1011.73 1011.70 1011.66 1011.58 1011.53 1011.49 1011.49 1011.53 1011.58 1011.58 1011.61 1011.66 1011.73 1011.85 1011.90 1012.02 1012.05 1012.14 1012.14 1012.22 1012.26 1012.29 1012.34 1012.41 1012.49 1012.58 1012.61 1012.73 1012.78 1012.85 1012.97
1015.38 1015.29 1015.14 1015.02 1014.90 1014.85 1014.73 1014.66 1014.58 1014.46 1014.38 1014.29 1014.14 1014.05 1013.93 1013.78 1013.70 1013.58 1013.41 1013.29 1013.17 1013.09 1013.02 1012.93 1012.85 1012.82 1012.73 1012.61 1012.53 1012.41 1012.26 1012.05 1011.90 1011.78 1011.73 1011.70 1011.70 1011.70 1011.73 1011.66 1011.58 1011.49 1011.41 1011.41 1011.41 1011.46 1011.49 1011.49 1011.53 1011.58 1011.61 1011.73 1011.78 1011.85 1011.90 1011.97 1012.02 1012.09 1012.14 1012.17 1012.22 1012.29 1012.34 1012.38 1012.46 1012.53 1012.61 1012.70 1012.78
1015.34 1015.26 1015.14 1015.02 1014.90 1014.82 1014.73 1014.61 1014.58 1014.46 1014.38 1014.26 1014.14 1014.02 1013.90 1013.78 1013.66 1013.53 1013.41 1013.29 1013.14 1013.09 1013.02 1012.93 1012.85 1012.78 1012.70 1012.58 1012.46 1012.34 1012.22 1012.02 1011.85 1011.73 1011.61 1011.58 1011.53 1011.53 1011.53 1011.58 1011.49 1011.38 1011.29 1011.29 1011.29 1011.34 1011.41 1011.41 1011.49 1011.53 1011.58 1011.58 1011.66 1011.73 1011.78 1011.85 1011.93 1011.97 1012.02 1012.02 1012.09 1012.14 1012.14 1012.17 1012.26 1012.29 1012.38 1012.41 1012.49
1015.34 1015.26 1015.14 1015.02 1014.90 1014.82 1014.73 1014.61 1014.53 1014.46 1014.34 1014.22 1014.09 1014.02 1013.85 1013.73 1013.61 1013.49 1013.38 1013.29 1013.14 1013.05 1013.02 1012.90 1012.82 1012.73 1012.66 1012.53 1012.46 1012.29 1012.14 1012.02 1011.85 1011.73 1011.58 1011.46 1011.38 1011.29 1011.29 1011.38 1011.34 1011.22 1011.14 1011.09 1011.14 1011.17 1011.26 1011.34 1011.41 1011.41 1011.49 1011.53 1011.58 1011.58 1011.66 1011.73 1011.85 1011.90 1011.93 1011.93 1011.97 1012.02 1012.02 1012.02 1012.02 1012.02 1012.09 1012.14 1012.22
1015.38 1015.26 1015.14 1015.02 1014.90 1014.82 1014.73 1014.61 1014.53 1014.46 1014.29 1014.22 1014.09 1013.93 1013.82 1013.73 1013.58 1013.46 1013.34 1013.22 1013.09 1013.02 1012.85 1012.82 1012.73 1012.66 1012.58 1012.46 1012.29 1012.17 1012.05 1011.90 1011.78 1011.66 1011.53 1011.38 1011.26 1011.14 1011.05 1011.09 1011.02 1011.02 1010.93 1010.90 1010.97 1011.02 1011.05 1011.14 1011.26 1011.34 1011.41 1011.41 1011.46 1011.49 1011.58 1011.66 1011.73 1011.73 1011.82 1011.85 1011.85 1011.85 1011.85 1011.85 1011.85 1011.85 1011.93 1011.93 1011.97
1015.41 1015.29 1015.17 1015.05 1014.93 1014.82 1014.73 1014.61 1014.49 1014.41 1014.29 1014.17 1014.05 1013.93 1013.82 1013.70 1013.58 1013.41 1013.29 1013.17 1013.05 1012.93 1012.82 1012.70 1012.61 1012.53 1012.46 1012.29 1012.17 1012.09 1011.97 1011.82 1011.70 1011.58 1011.41 1011.26 1011.14 1010.97 1010.85 1010.78 1010.73 1010.73 1010.73 1010.73 1010.82 1010.85 1010.90 1010.97 1011.05 1011.14 1011.26 1011.29 1011.38 1011.46 1011.53 1011.58 1011.58 1011.61 1011.66 1011.70 1011.73 1011.73 1011.73 1011.73 1011.78 1011.82 1011.82 1011.85 1011.85
1015.41 1015.34 1015.26 1015.09 1014.97 1014.85 1014.73 1014.61 1014.53 1014.46 1014.29 1014.17 1014.05 1013.93 1013.82 1013.70 1013.58 1013.41 1013.29 1013.14 1013.02 1012.90 1012.78 1012.61 1012.49 1012.38 1012.29 1012.17 1012.05 1011.97 1011.85 1011.70 1011.58 1011.41 1011.29 1011.14 1010.97 1010.85 1010.73 1010.61 1010.58 1010.49 1010.49 1010.58 1010.58 1010.66 1010.73 1010.78 1010.85 1010.97 1011.05 1011.14 1011.26 1011.34 1011.41 1011.41 1011.46 1011.46 1011.49 1011.53 1011.58 1011.61 1011.61 1011.70 1011.73 1011.78 1011.78 1011.82 1011.85
1015.49 1015.41 1015.29 1015.14 1015.02 1014.90 1014.78 1014.70 1014.58 1014.46 1014.34 1014.22 1014.09 1013.97 1013.85 1013.70 1013.58 1013.41 1013.29 1013.14 1012.97 1012.78 1012.66 1012.53 1012.38 1012.26 1012.14 1012.05 1011.97 1011.85 1011.73 1011.61 1011.49 1011.38 1011.22 1011.02 1010.85 1010.73 1010.61 1010.49 1010.41 1010.29 1010.29 1010.34 1010.38 1010.46 1010.49 1010.58 1010.70 1010.78 1010.85 1010.97 1011.05 1011.14 1011.17 1011.26 1011.29 1011.34 1011.38 1011.41 1011.41 1011.49 1011.58 1011.61 1011.70 1011.73 1011.73 1011.78 1011.85
1015.58 1015.46 1015.38 1015.22 1015.09 1014.97 1014.85 1014.73 1014.61 1014.49 1014.38 1014.22 1014.05 1013.97 1013.82 1013.61 1013.46 1013.34 1013.17 1013.02 1012.85 1012.70 1012.53 1012.41 1012.26 1012.14 1011.97 1011.85 1011.82 1011.73 1011.61 1011.53 1011.41 1011.29 1011.17 1011.02 1010.85 1010.70 1010.58 1010.46 1010.29 1010.17 1010.14 1010.14 1010.17 1010.22 1010.29 1010.34 1010.41 1010.53 1010.66 1010.73 1010.85 1010.85 1010.93 1011.02 1011.09 1011.14 1011.17 1011.22 1011.29 1011.38 1011.41 1011.53 1011.58 1011.61 1011.66 1011.73 1011.73
1015.61 1015.58 1015.41 1015.29 1015.14 1015.02 1014.85 1014.73 1014.66 1014.53 1014.38 1014.22 1014.05 1013.90 1013.73 1013.58 1013.38 1013.26 1013.09 1012.90 1012.73 1012.58 1012.46 1012.29 1012.09 1011.97 1011.85 1011.73 1011.61 1011.53 1011.41 1011.38 1011.29 1011.22 1011.14 1011.02 1010.85 1010.70 1010.53 1010.38 1010.17 1010.05 1009.97 1009.93 1009.97 1010.02 1010.05 1010.09 1010.17 1010.29 1010.38 1010.53 1010.61 1010.66 1010.70 1010.73 1010.85 1010.90 1010.97 1011.02 1011.09 1011.17 1011.26 1011.38 1011.41 1011.46 1011.53 1011.58 1011.61
1015.70 1015.58 1015.46 1015.29 1015.17 1015.02 1014.90 1014.78 1014.66 1014.53 1014.38 1014.17 1014.02 1013.85 1013.70 1013.49 1013.29 1013.14 1012.97 1012.82 1012.66 1012.49 1012.34 1012.17 1012.02 1011.90 1011.73 1011.66 1011.58 1011.46 1011.38 1011.29 1011.22 1011.14 1011.02 1010.90 1010.73 1010.58 1010.46 1010.26 1010.05 1009.90 1009.85 1009.82 1009.78 1009.82 1009.85 1009.85 1009.97 1010.05 1010.14 1010.29 1010.41 1010.46 1010.49 1010.58 1010.61 1010.70 1010.73 1010.82 1010.85 1010.97 1011.05 1011.14 1011.22 1011.29 1011.41 1011.41 1011.53
1015.66 1015.58 1015.41 1015.29 1015.14 1015.02 1014.90 1014.78 1014.61 1014.49 1014.29 1014.14 1013.90 1013.73 1013.58 1013.41 1013.26 1013.05 1012.85 1012.73 1012.61 1012.46 1012.29 1012.14 1012.02 1011.85 1011.70 1011.58 1011.46 1011.41 1011.29 1011.22 1011.14 1011.05 1010.97 1010.85 1010.73 1010.58 1010.34 1010.14 1009.93 1009.82 1009.73 1009.70 1009.66 1009.61 1009.66 1009.70 1009.73 1009.82 1009.93 1010.02 1010.14 1010.22 1010.29 1010.29 1010.38 1010.46 1010.46 1010.53 1010.61 1010.73 1010.82 1010.90 1011.02 1011.05 1011.17 1011.29 1011.29
1015.66 1015.53 1015.41 1015.26 1015.14 1015.02 1014.85 1014.73 1014.58 1014.41 1014.26 1014.05 1013.85 1013.70 1013.53 1013.38 1013.22 1013.02 1012.85 1012.73 1012.58 1012.41 1012.22 1012.05 1011.93 1011.78 1011.61 1011.49 1011.41 1011.29 1011.26 1011.14 1011.05 1010.97 1010.85 1010.78 1010.66 1010.49 1010.26 1010.02 1009.82 1009.70 1009.61 1009.58 1009.53 1009.53 1009.53 1009.58 1009.58 1009.66 1009.73 1009.85 1009.85 1009.90 1009.97 1010.02 1010.09 1010.14 1010.22 1010.29 1010.34 1010.41 1010.53 1010.66 1010.73 1010.85 1010.93 1011.02 1011.05
1015.70 1015.58 1015.41 1015.22 1015.09 1014.97 1014.85 1014.70 1014.53 1014.38 1014.17 1014.02 1013.85 1013.70 1013.49 1013.34 1013.14 1013.02 1012.85 1012.70 1012.53 1012.29 1012.14 1011.97 1011.85 1011.70 1011.58 1011.46 1011.34 1011.26 1011.17 1011.14 1011.02 1010.85 1010.78 1010.70 1010.61 1010.46 1010.22 1009.97 1009.73 1009.58 1009.49 1009.41 1009.41 1009.41 1009.41 1009.41 1009.41 1009.49 1009.58 1009.66 1009.61 1009.61 1009.66 1009.73 1009.78 1009.85 1009.97 1010.02 1010.05 1010.14 1010.22 1010.34 1010.46 1010.58 1010.61 1010.73 1010.78
1015.73 1015.61 1015.41 1015.29 1015.14 1014.97 1014.82 1014.70 1014.53 1014.34 1014.14 1014.02 1013.82 1013.66 1013.49 1013.29 1013.09 1012.90 1012.73 1012.66 1012.46 1012.26 1012.05 1011.85 1011.73 1011.61 1011.53 1011.46 1011.29 1011.22 1011.14 1011.02 1011.02 1010.85 1010.73 1010.61 1010.53 1010.41 1010.22 1009.93 1009.73 1009.53 1009.41 1009.34 1009.29 1009.29 1009.26 1009.26 1009.29 1009.38 1009.41 1009.46 1009.41 1009.34 1009.34 1009.41 1009.46 1009.58 1009.66 1009.73 1009.82 1009.85 1009.93 1010.05 1010.17 1010.26 1010.34 1010.41 1010.46
1015.78 1015.66 1015.53 1015.34 1015.14 1014.97 1014.78 1014.61 1014.46 1014.29 1014.14 1013.93 1013.73 1013.58 1013.41 1013.22 1013.05 1012.85 1012.73 1012.58 1012.41 1012.22 1012.02 1011.82 1011.61 1011.53 1011.41 1011.38 1011.26 1011.14 1011.02 1010.93 1010.90 1010.85 1010.73 1010.58 1010.46 1010.34 1010.22 1009.97 1009.70 1009.49 1009.38 1009.29 1009.22 1009.14 1009.09 1009.09 1009.14 1009.17 1009.26 1009.26 1009.22 1009.14 1009.14 1009.14 1009.14 1009.26 1009.38 1009.49 1009.58 1009.66 1009.73 1009.82 1009.90 1009.97 1010.02 1010.09 1010.22
1015.82 1015.66 1015.49 1015.34 1015.14 1014.93 1014.73 1014.53 1014.38 1014.17 1014.02 1013.85 1013.70 1013.46 1013.29 1013.14 1013.02 1012.82 1012.61 1012.49 1012.29 1012.14 1011.93 1011.73 1011.58 1011.41 1011.29 1011.26 1011.14 1010.97 1010.82 1010.73 1010.70 1010.66 1010.58 1010.46 1010.29 1010.22 1010.09 1009.90 1009.61 1009.41 1009.26 1009.17 1009.14 1009.02 1008.97 1008.97 1008.93 1008.97 1009.02 1009.02 1009.02 1008.97 1008.93 1008.85 1008.85 1008.97 1009.09 1009.26 1009.38 1009.46 1009.49 1009.53 1009.61 1009.70 1009.73 1009.85 1009.97
1015.73 1015.58 1015.41 1015.26 1015.05 1014.85 1014.61 1014.46 1014.26 1014.05 1013.93 1013.82 1013.66 1013.46 1013.29 1013.09 1012.90 1012.73 1012.53 1012.38 1012.17 1011.97 1011.82 1011.61 1011.41 1011.29 1011.17 1011.09 1010.97 1010.82 1010.61 1010.46 1010.34 1010.29 1010.29 1010.22 1010.09 1009.97 1009.85 1009.70 1009.46 1009.26 1009.14 1009.05 1009.02 1008.93 1008.85 1008.82 1008.78 1008.73 1008.78 1008.78 1008.78 1008.73 1008.73 1008.70 1008.61 1008.66 1008.73 1008.90 1009.09 1009.22 1009.29 1009.29 1009.38 1009.41 1009.53 1009.61 1009.73
Wind_Speed
4 3 3 2 2 2 2 2 2 2 2 2 3 3 2 2 2 3 3 3 3 4 4 4 4 4 4 6 6 6 7 7 8 8 9 9 8 8 8 7 7 7 8 8 8 8 7 7 5 4 3 3 4 4 4 5 6 7 7 6 6 5 6 6 5 6 6 5 4
3 3 3 2 2 2 2 2 2 2 2 2 2 2 2 2 2 3 3 3 3 3 3 3 4 5 6 7 6 6 7 7 8 8 9 9 9 9 8 7 7 8 8 8 8 7 6 6 5 4 3 3 3 4 4 4 5 6 7 7 6 5 6 6 6 6 6 6 6
2 2 2 3 2 2 2 2 3 3 3 3 3 3 3 2 3 3 3 3 3 3 3 3 4 5 7 7 7 6 7 7 8 8 8 8 9 9 8 7 8 8 8 7 7 6 5 6 5 4 3 3 4 4 4 4 4 5 5 6 4 4 5 5 7 7 6 6 6
2 2 2 3 3 3 3 3 3 4 4 4 4 4 3 3 3 3 3 4 4 4 4 4 5 6 7 7 7 7 7 7 8 8 8 7 8 8 8 8 8 8 8 8 7 7 6 6 4 3 3 4 4 4 3 3 4 3 3 3 3 3 4 4 5 6 5 5 6
3 3 3 3 4 4 4 4 4 5 5 4 4 4 4 4 3 4 4 4 4 4 5 6 7 7 7 8 8 8 7 7 6 7 7 7 7 7 7 8 8 8 8 8 8 8 7 7 4 3 3 3 3 3 3 4 4 4 3 2 2 3 3 3 4 4 4 5 5
4 4 4 4 4 5 5 5 6 6 5 5 5 5 5 4 4 4 5 5 5 6 7 7 7 7 8 8 9 8 7 7 6 6 7 7 7 7 7 8 8 8 7 7 8 8 8 7 4 3 2 2 3 3 4 5 4 4 3 3 3 3 3 4 3 3 4 4 4
5 5 5 4 4 4 4 4 5 5 5 5 6 7 7 6 6 6 7 7 6 6 6 5 6 6 7 8 8 8 7 7 7 8 8 7 7 7 8 8 8 7 7 7 7 7 6 5 3 2 2 2 2 3 4 5 4 4 4 4 3 3 3 4 3 3 3 4 4
6 6 6 6 6 5 5 5 4 4 4 4 5 6 7 7 7 8 8 7 7 6 6 5 6 7 7 7 8 8 8 8 8 8 8 7 8 8 8 8 8 7 7 6 6 5 4 3 2 2 2 2 2 2 4 5 5 5 5 5 4 3 3 3 3 3 3 4 4
5 6 6 6 6 6 6 6 6 5 5 5 6 6 7 7 8 8 7 6 6 6 7 6 7 8 8 8 8 8 8 8 8 8 8 8 8 8 8 7 8 7 7 6 5 5 4 3 2 2 2 2 2 3 4 5 6 7 7 6 5 4 4 4 4 4 4 4 4
5 5 6 5 5 6 6 6 6 6 6 6 7 7 7 6 7 7 6 5 6 6 7 7 8 8 8 8 8 8 8 7 7 8 8 8 9 9 9 8 8 7 7 6 6 5 5 4 3 3 3 3 3 4 5 5 6 7 6 4 5 5 5 5 5 5 5 5 5
5 5 5 5 6 6 6 6 6 6 6 6 7 7 6 6 6 6 6 5 6 7 8 8 8 8 8 8 8 8 8 7 7 8 8 9 9 9 9 8 8 8 8 7 6 6 5 5 5 6 6 5 5 5 5 6 6 7 6 5 5 6 6 6 6 6 6 6 6
5 5 5 5 5 6 6 5 5 5 6 6 6 7 6 6 6 6 6 6 7 8 8 8 8 9 8 8 8 8 8 9 9 9 9 9 10 10 10 9 9 8 8 8 7 6 5 6 7 8 8 7 6 5 6 7 7 7 7 7 7 7 7 8 7 6 6 6 7
5 4 4 5 5 5 5 5 5 5 5 6 6 6 6 6 6 6 7 7 7 7 7 7 8 8 9 8 8 8 8 9 10 10 10 10 10 10 10 10 10 9 9 8 7 6 6 7 9 9 10 9 8 7 8 9 9 9 9 8 8 8 8 8 8 7 7 7 7
5 5 5 5 5 5 5 5 5 5 5 6 6 6 6 6 6 6 7 7 7 7 7 7 7 7 8 9 9 9 9 9 10 10 11 11 11 11 11 11 11 10 10 9 8 9 9 9 10 10 11 11 10 9 10 10 10 10 10 10 10 10 10 9 9 8 8 8 8
6 6 6 6 6 5 5 5 4 5 5 6 6 6 6 6 6 6 7 7 8 7 7 7 7 7 8 9 9 9 10 10 10 11 11 12 12 12 12 12 12 11 10 9 9 9 10 11 11 11 11 12 11 11 11 11 11 11 11 11 11 11 10 10 10 9 9 9 9
6 6 6 6 6 6 6 5 4 5 5 6 6 6 6 6 6 7 7 7 7 7 7 8 8 8 8 8 9 9 10 10 10 11 11 11 12 12 12 12 12 12 11 11 10 9 10 10 11 11 12 12 12 12 11 11 11 12 12 11 11 10 10 9 9 9 9 10 10
6 6 6 7 7 7 7 6 5 5 6 7 7 7 7 6 6 7 7 8 7 8 8 9 8 8 8 8 8 8 9 9 10 10 10 11 11 12 12 12 12 12 12 11 10 10 10 10 10 10 11 11 11 10 10 10 10 10 10 10 10 9 9 9 9 9 9 10 10
6 6 7 7 7 7 7 7 7 7 7 8 8 7 7 7 7 7 7 8 8 9 10 10 9 9 9 9 9 8 8 8 9 10 10 11 11 12 12 12 12 12 12 11 11 11 11 11 10 10 10 9 9 9 9 8 8 8 9 9 8 8 8 8 9 9 9 9 9
7 7 7 7 7 7 7 7 7 7 8 8 7 8 8 8 8 8 8 8 9 9 10 10 10 10 10 10 10 9 8 9 10 10 11 11 11 12 12 12 12 12 12 11 11 11 11 10 10 10 9 8 8 8 8 8 8 8 8 8 8 8 8 8 8 8 8 9 9
7 7 7 7 7 7 7 7 7 7 7 7 8 8 8 9 9 9 9 9 9 10 10 10 10 10 10 10 10 10 9 9 10 11 11 11 11 12 12 12 12 12 11 11 11 11 11 10 10 10 9 9 8 8 8 8 8 8 8 7 8 8 8 8 9 9 9 9 9
7 7 7 7 7 7 7 7 7 7 8 8 8 8 8 8 9 9 9 10 10 10 10 10 10 11 11 11 11 11 10 9 10 10 11 11 12 12 12 12 11 11 11 11 11 11 11 11 10 10 10 9 9 9 9 8 8 8 8 8 8 8 9 9 9 10 10 10 10
7 8 8 8 8 7 7 7 8 8 8 8 8 8 8 8 9 9 9 9 10 10 10 10 10 11 11 11 11 11 11 10 10 10 11 11 11 11 11 11 10 10 10 10 10 10 11 11 11 11 10 10 10 10 10 9 9 9 9 9 9 9 10 10 10 10 10 10 10
7 8 8 8 8 8 8 8 8 8 8 8 8 8 8 9 9 9 9 9 9 9 10 9 10 10 10 11 11 11 11 11 11 11 11 11 10 10 10 9 9 9 9 8 9 9 9 10 10 10 10 10 9 9 9 10 9 9 9 10 10 10 10 9 9 9 9 9 9
8 8 7 7 8 8 8 8 8 8 8 9 9 9 9 9 9 9 9 9 9 9 9 8 8 9 10 11 11 12 12 12 12 12 12 11 10 10 9 8 8 8 8 8 8 8 8 7 8 8 9 9 9 9 9 10 10 10 10 10 10 10 10 9 9 9 10 10 10
8 8 8 8 8 8 8 8 9 9 9 9 9 9 10 10 10 9 9 10 10 10 9 9 9 9 9 10 11 11 12 13 13 13 12 11 10 10 10 9 9 8 8 8 8 8 8 7 7 7 7 8 8 8 9 9 10 10 11 11 11 11 11 11 11 11 12 11 11
9 9 9 9 9 9 9 9 9 9 10 10 10 10 10 10 10 10 10 10 10 10 10 9 9 9 9 9 10 11 11 11 12 12 12 11 11 11 11 10 9 9 8 8 9 9 10 10 9 8 8 7 7 8 8 8 9 10 11 11 11 11 11 12 12 13 13 12 12
10 10 10 10 10 10 10 10 10 10 10 10 10 10 10 10 10 10 11 11 11 10 10 9 9 8 8 9 10 10 11 11 11 12 12 12 13 13 12 11 10 9 9 9 10 10 11 12 12 11 10 8 8 7 7 7 9 10 11 11 11 12 12 12 12 13 13 12 13
10 10 10 11 11 11 11 10 10 10 10 11 11 11 11 11 11 11 11 11 11 11 10 9 8 7 7 7 8 10 11 11 11 12 12 13 14 14 13 12 11 11 11 11 11 11 13 14 14 14 13 10 8 7 7 8 9 9 10 10 11 11 12 12 11 11 11 12 12
10 10 11 11 11 11 11 11 11 11 11 11 11 11 12 12 12 12 12 12 12 11 10 8 7 6 6 7 9 10 11 12 11 11 12 13 14 14 14 13 12 12 12 12 12 12 13 14 15 16 15 13 9 7 7 8 8 8 8 9 9 9 10 10 9 9 9 10 9
10 10 10 11 11 11 11 11 11 11 11 11 11 12 12 12 12 12 12 12 12 11 10 9 8 8 9 10 10 11 11 11 11 11 12 13 14 15 15 14 13 12 12 12 13 13 14 15 15 16 16 15 11 9 8 8 8 8 7 7 8 8 9 9 9 9 9 8 8
10 10 10 11 11 11 11 11 11 12 11 11 12 12 12 12 12 12 12 12 11 11 11 11 11 12 12 12 11 12 12 12 12 13 13 14 15 15 15 15 15 13 12 12 13 14 15 15 16 16 16 16 13 10 9 9 8 8 7 7 8 8 9 9 9 9 9 9 8
10 10 11 11 12 12 12 12 12 12 12 12 12 12 12 13 13 12 12 12 12 12 12 12 13 13 13 13 12 13 13 13 13 13 13 14 15 15 15 15 15 14 13 13 13 15 16 16 16 16 17 17 14 12 11 10 9 9 8 9 9 9 9 8 8 9 10 10 10
10 11 11 12 12 12 12 12 13 13 13 13 13 13 13 13 13 12 12 11 11 12 12 13 13 13 13 13 13 13 13 13 14 14 15 15 15 16 16 16 15 14 14 14 14 15 16 17 17 17 17 18 15 13 11 10 9 8 8 9 9 10 10 10 9 10 10 11 10
10 11 11 12 12 13 13 13 13 13 14 14 14 14 13 13 13 13 12 11 11 11 12 12 13 13 13 13 13 13 13 13 13 14 15 15 16 16 16 15 12 12 13 14 14 15 16 17 17 18 18 18 14 12 11 11 10 9 9 10 10 10 10 10 10 11 11 11 10
11 12 12 12 13 13 13 13 13 14 14 14 15 15 14 14 14 14 13 13 12 12 12 13 13 13 13 13 13 13 14 14 14 15 15 16 16 17 17 17 15 14 14 15 14 15 16 17 18 18 18 17 13 11 11 12 11 11 11 11 11 11 11 11 11 11 11 12 11
12 13 13 13 13 14 14 14 14 15 15 15 15 15 15 15 14 14 13 13 13 13 13 13 13 13 13 13 13 13 14 15 15 15 15 16 16 17 18 18 18 17 17 16 15 15 16 17 18 18 17 15 11 10 10 11 10 11 12 12 12 12 12 12 11 11 11 11 12
13 13 14 14 14 14 14 15 15 15 15 16 16 16 15 15 15 14 13 13 13 13 14 13 13 13 13 13 13 13 13 14 16 16 16 16 16 17 18 18 18 18 17 17 16 15 16 17 18 18 17 13 11 10 10 9 9 10 11 12 12 12 12 11 11 11 11 12 12
13 14 14 14 15 15 15 15 15 15 15 16 15 15 15 15 14 14 13 12 13 13 14 13 13 13 13 13 13 13 14 14 15 16 17 16 16 17 18 19 18 17 16 16 16 16 17 18 19 18 16 12 11 10 10 9 9 9 10 10 11 11 11 10 9 10 11 12 12
13 13 14 14 14 15 15 15 14 15 15 15 15 15 15 14 13 13 13 12 12 13 13 14 14 13 13 13 13 13 14 14 15 16 16 16 16 17 18 19 18 17 17 17 17 17 17 18 19 19 18 14 12 10 9 8 9 10 10 9 9 10 10 9 9 8 9 12 13
13 13 13 14 14 14 15 15 14 14 14 14 15 15 15 14 14 14 13 12 12 13 13 13 14 13 13 12 13 13 14 14 14 14 15 16 17 18 19 19 19 19 19 19 18 18 18 19 20 20 19 14 12 10 9 8 9 10 10 9 9 9 9 9 8 8 8 10 11
13 13 13 14 14 14 15 15 15 14 14 14 14 14 14 14 14 14 13 13 13 13 12 12 13 14 14 13 12 13 14 15 15 15 15 16 17 18 18 19 19 20 19 19 19 19 19 20 21 21 20 15 12 10 9 8 9 10 11 10 9 8 8 8 7 7 7 8 8
Wind_Direction
224 228 233 242 249 253 252 252 252 260 271 280 282 282 280 277 270 265 261 256 256 256 257 257 257 256 253 246 238 233 232 231 230 230 230 232 235 237 237 237 234 232 228 226 221 216 211 207 203 201 203 207 193 179 167 157 157 160 164 168 169 167 168 174 191 200 202 199 197
216 223 229 234 243 252 259 262 256 252 253 258 264 269 273 274 271 267 264 259 259 261 264 266 268 268 266 263 252 243 238 236 234 233 231 230 231 230 229 228 228 227 225 224 219 216 211 208 205 201 198 201 196 188 179 171 169 170 172 174 172 169 169 175 185 193 197 200 200
226 227 229 231 233 239 249 263 268 269 269 268 264 261 257 254 255 256 258 257 260 264 267 270 271 270 268 266 260 251 243 239 238 236 234 231 229 226 222 220 222 222 222 221 219 218 216 212 212 208 202 199 198 194 187 180 178 179 181 183 178 173 174 178 182 186 190 196 200
311 280 255 242 236 232 231 237 247 255 259 261 258 254 249 246 251 254 256 258 258 259 260 264 267 268 267 266 263 258 251 243 241 240 239 236 231 226 221 217 218 219 220 220 223 224 223 220 222 219 211 203 202 198 189 177 176 179 183 185 181 182 184 185 182 183 186 193 198
346 337 326 311 301 291 280 269 264 260 257 254 251 248 245 242 243 246 249 252 254 257 261 265 268 270 271 270 268 265 260 249 243 240 240 238 234 227 221 217 218 219 221 222 225 228 229 225 229 227 217 206 202 196 187 175 175 177 180 180 184 190 195 196 190 189 190 194 196
0 355 349 341 332 323 315 307 301 297 293 288 283 278 273 268 262 259 259 260 259 259 260 264 268 271 273 274 272 269 264 255 247 242 240 239 234 228 222 220 220 222 223 226 229 231 232 227 227 226 223 215 206 194 183 175 175 177 181 189 192 194 196 198 193 191 192 194 194
4 1 357 350 342 333 322 313 308 305 301 297 291 286 283 281 279 276 274 273 271 266 261 257 260 264 268 271 270 268 263 257 252 247 243 239 233 227 223 221 221 223 225 228 231 233 232 224 217 211 211 216 215 202 191 181 176 179 186 198 197 196 196 200 193 188 188 192 192
1 0 358 353 347 340 331 322 312 302 293 285 281 278 277 277 275 274 273 272 273 272 269 263 259 259 262 265 267 267 264 260 255 250 245 240 234 230 226 222 221 222 223 225 227 229 228 220 208 200 198 200 209 211 204 193 186 188 195 202 200 197 196 202 196 191 189 192 197
358 357 354 350 344 339 332 326 317 307 296 285 280 278 278 278 277 277 276 274 274 274 272 268 263 261 261 261 262 263 262 260 256 251 246 242 238 233 228 222 220 220 219 217 219 220 219 213 206 204 203 199 203 209 210 202 198 200 203 205 201 199 199 203 203 200 199 198 202
358 354 350 346 340 335 328 322 314 306 299 291 286 283 280 278 277 277 276 275 274 273 271 270 267 265 262 261 260 258 255 252 250 247 244 241 238 234 231 226 222 219 217 212 210 210 210 206 206 208 209 208 208 209 210 205 203 204 205 203 202 202 203 203 203 204 206 206 206
2 356 351 345 339 331 324 317 309 302 297 292 289 287 284 279 276 274 273 273 272 271 271 272 272 269 265 261 259 256 253 247 243 241 240 238 235 233 232 229 225 222 219 214 209 207 208 208 211 211 211 207 205 206 206 204 204 205 205 205 202 203 204 203 201 203 207 209 207
8 1 355 347 339 332 324 316 308 301 297 295 295 294 292 289 286 283 280 277 275 274 274 275 275 273 269 264 259 257 255 253 248 246 244 241 237 234 232 230 227 224 221 217 210 208 209 214 215 216 213 208 204 201 201 201 202 203 204 203 200 202 205 205 202 201 203 205 207
11 5 359 351 344 336 330 323 316 310 307 306 306 305 303 301 299 295 291 285 282 279 278 277 275 272 269 266 261 258 256 256 255 253 251 247 244 241 237 233 229 226 222 217 210 207 209 215 218 220 218 213 208 203 200 199 200 201 202 202 200 201 203 204 201 199 199 200 204
11 7 1 354 349 343 338 333 326 322 320 319 317 315 313 311 308 304 299 295 291 288 285 280 274 270 267 266 264 261 258 255 256 255 255 254 252 249 245 242 237 233 227 222 215 211 211 215 218 221 221 219 214 209 205 202 202 203 203 204 204 204 204 203 200 197 195 197 201
8 5 1 355 351 348 344 339 332 328 326 324 322 321 319 315 312 308 304 299 297 294 291 286 281 276 271 269 266 264 260 257 255 255 254 254 253 252 250 249 246 242 237 232 224 218 216 218 220 223 224 223 220 215 211 208 208 208 208 208 208 208 206 204 200 197 195 196 200
3 2 358 354 351 349 345 341 335 330 327 325 324 322 319 314 311 309 306 303 299 296 293 290 288 286 282 276 271 267 263 260 257 255 254 253 253 252 251 250 249 247 244 240 234 227 223 222 224 227 228 228 225 221 217 213 213 213 213 213 211 209 206 203 199 197 196 197 201
359 357 354 351 349 346 343 339 335 331 327 325 323 320 316 313 311 309 307 304 301 297 294 292 292 291 289 286 281 275 270 265 261 258 255 253 252 251 250 248 247 246 244 242 238 234 229 227 227 229 230 230 228 224 220 216 215 215 215 214 212 208 205 201 198 196 197 200 204
352 350 348 345 343 341 338 335 331 328 326 324 321 319 316 314 311 308 304 301 298 296 295 294 293 291 289 288 285 282 277 272 268 264 261 258 254 252 249 247 245 243 242 239 238 235 232 229 227 227 228 229 227 224 220 216 215 215 215 215 212 208 205 202 199 198 198 202 207
343 342 340 338 336 333 331 328 326 324 322 320 318 316 314 312 309 306 302 300 297 296 295 294 293 291 289 288 286 284 280 277 274 271 268 265 261 257 252 249 245 241 239 236 235 234 233 229 227 225 225 224 224 222 219 215 215 216 217 216 213 210 207 205 203 202 201 203 207
335 333 331 329 326 324 322 321 319 318 316 314 312 311 310 308 307 304 302 300 299 297 295 293 292 291 290 289 287 285 282 279 276 274 272 269 266 262 258 254 249 243 239 235 234 233 231 229 226 224 222 221 221 220 218 215 215 216 216 217 216 213 211 209 208 207 207 208 210
328 326 324 321 318 316 315 315 313 312 310 308 307 306 305 305 304 303 302 301 300 298 296 293 292 291 291 290 288 285 283 279 276 274 272 270 267 265 262 258 253 248 242 237 235 233 230 227 225 223 222 221 221 220 218 216 217 217 217 218 218 216 214 213 213 213 213 213 214
323 321 318 315 313 312 312 311 310 308 306 304 304 303 303 303 302 301 300 299 299 298 296 295 294 293 291 290 288 285 283 280 276 274 272 270 268 266 264 261 258 253 247 241 238 236 233 229 226 224 223 222 221 221 220 220 220 220 221 221 220 219 218 217 216 215 215 214 215
320 318 315 312 311 311 311 310 308 307 305 304 304 304 303 302 300 299 298 298 296 295 295 294 293 292 292 290 288 286 283 279 275 272 270 268 267 267 265 263 260 255 250 244 240 238 235 233 229 225 223 222 221 221 222 223 223 223 223 223 222 221 220 218 217 216 215 216 216
319 318 315 312 312 312 312 311 310 310 309 308 308 306 305 303 302 300 299 297 294 293 291 290 290 290 290 289 286 283 280 277 274 271 267 264 264 263 263 261 257 254 250 246 241 236 232 231 228 226 224 223 223 224 225 226 225 225 225 225 225 224 222 219 217 217 218 220 221
321 318 316 315 315 315 315 314 314 314 313 312 310 309 308 307 305 304 301 299 296 293 290 288 287 287 287 286 284 282 280 277 274 271 267 263 260 258 257 256 253 250 247 244 238 232 226 224 225 226 226 226 226 227 227 227 228 228 228 229 228 227 225 223 221 221 221 222 224
321 320 319 318 318 318 318 317 317 316 315 314 313 312 311 310 307 305 303 301 299 296 294 292 289 287 285 284 283 282 280 278 275 273 269 265 260 256 254 253 250 248 245 241 234 227 222 220 223 226 229 230 229 227 226 226 228 230 232 232 231 230 228 227 225 223 223 224 225
321 320 320 320 319 319 318 318 318 317 316 315 314 313 311 310 308 307 305 303 301 299 297 293 290 287 283 282 280 279 278 277 276 274 271 267 262 258 254 250 248 247 244 237 229 222 218 218 221 224 228 232 230 227 225 226 229 231 232 233 233 232 232 231 229 227 226 226 227
320 320 320 319 318 317 317 317 316 316 315 315 313 312 311 310 308 307 305 304 303 301 298 294 291 287 283 281 279 278 278 277 276 274 272 269 265 260 255 249 246 244 242 236 227 220 216 217 219 222 224 226 228 228 228 231 232 232 232 233 234 234 234 234 233 232 231 231 231
319 318 318 318 316 315 315 315 315 314 313 312 311 311 310 309 308 307 305 303 302 300 298 294 292 288 285 283 282 282 281 279 277 275 272 269 267 263 259 252 248 245 241 234 225 219 215 215 218 220 221 222 223 225 228 232 233 233 232 232 232 232 233 234 235 236 236 237 237
318 317 316 315 314 313 313 313 312 311 311 310 309 309 308 307 305 304 302 301 299 297 295 293 290 288 285 285 285 285 284 282 280 277 274 271 268 266 263 258 254 248 241 231 223 218 215 215 216 218 220 220 220 223 227 230 231 232 232 232 232 232 233 235 236 238 239 240 241
317 317 315 314 312 312 311 311 310 309 308 307 306 305 304 302 301 300 299 297 295 294 293 292 289 287 286 285 285 285 284 284 282 280 277 275 272 270 267 264 261 255 246 232 223 218 215 214 216 217 218 218 219 221 225 227 227 228 228 230 230 231 232 234 235 237 238 240 240
319 318 316 314 313 312 312 312 311 310 308 306 304 302 300 298 297 296 296 296 295 295 294 293 290 288 287 286 284 284 283 283 281 279 278 276 275 274 272 269 266 261 253 238 226 219 216 215 215 216 216 216 218 221 224 225 225 226 227 229 229 229 230 231 234 235 237 238 237
321 319 317 315 313 313 313 313 312 311 309 306 304 301 299 298 297 296 296 296 296 296 295 294 292 291 289 288 287 286 285 284 282 280 279 277 276 275 273 271 268 264 258 247 233 223 218 216 215 216 216 215 218 220 222 223 224 225 226 227 227 227 228 229 232 234 235 236 236
322 320 317 315 314 314 313 313 312 311 309 307 304 302 301 300 300 300 300 300 299 298 297 296 294 292 291 289 288 287 286 285 284 283 282 280 278 276 274 271 268 264 258 253 239 228 221 218 216 216 215 214 216 218 220 221 223 223 225 226 226 227 227 228 230 232 234 235 235
322 320 317 315 315 314 314 313 312 311 309 307 305 304 303 303 302 302 302 302 301 299 297 295 294 292 290 289 287 286 285 284 283 282 281 281 279 277 275 272 269 265 260 255 244 233 225 221 218 217 215 214 214 216 218 220 223 224 225 226 226 227 227 228 230 232 234 234 234
322 320 318 316 315 314 314 313 312 311 309 307 306 305 305 304 303 302 301 300 299 297 295 294 293 292 290 289 288 286 284 284 283 282 281 279 278 276 274 272 270 266 262 257 247 237 229 224 221 218 215 214 214 214 216 218 222 224 225 226 227 227 228 229 231 232 232 233 232
322 320 318 316 314 314 313 312 311 309 308 306 305 305 304 303 301 300 299 299 297 296 295 294 293 292 291 290 290 288 286 285 284 283 282 280 278 276 274 273 271 268 265 260 251 241 232 227 223 220 216 215 215 214 214 216 220 223 225 227 228 229 229 230 231 232 232 231 230
321 318 316 314 312 311 310 309 307 306 304 304 303 302 301 300 299 299 298 298 296 295 294 293 292 291 291 291 291 289 287 285 284 283 282 280 278 276 275 274 272 270 267 263 255 245 236 229 226 222 218 218 217 216 214 215 218 221 224 226 228 229 229 229 230 230 231 229 226
318 316 313 311 309 307 306 304 302 301 301 301 301 301 300 300 299 298 297 296 294 293 292 291 291 290 290 291 290 288 287 285 283 281 280 279 276 275 274 274 273 271 269 265 259 250 240 233 229 224 221 221 220 219 216 215 217 219 222 224 227 228 228 228 226 227 228 226 222
314 312 310 307 305 304 303 301 300 300 299 300 300 301 300 300 298 297 296 294 292 291 290 290 290 290 291 290 288 286 285 283 280 278 276 275 274 273 272 271 271 270 269 267 262 255 246 238 233 227 224 223 223 222 219 215 216 217 219 221 223 225 226 225 222 221 221 222 218
310 309 307 305 303 303 302 302 302 301 301 301 301 301 300 299 298 297 296 294 294 293 292 291 292 292 291 290 287 285 283 281 279 277 275 273 273 272 270 269 269 268 267 266 263 258 252 244 238 232 227 226 224 222 220 216 216 216 217 218 219 221 222 221 217 215 214 213 213